Location: Croydon
(51.3762°N, 0.0982°W)
Time: 14:33:40
(UTC+00:00)

Altair - Pass Details

Date: 17 November 2019
Orbit: 1502 x 1682 km, 47.2° (Epoch: 04 December)

Event Time Altitude Azimuth Distance (km) Brightness Sun altitude
Rises 08:57:41 0° 284° (WNW) 4,656 9.5 10.7°
Reaches altitude 10° 09:00:50 10° 278° (W) 3,686 9.1 11.0°
Maximum altitude 09:09:27 45° 210° (SSW) 2,024 8.6 11.8°
Drops below altitude 10° 09:18:20 10° 143° (SE) 3,794 13.2 12.7°
Sets 09:21:38 0° 137° (SE) 4,803 12.0 13.0°
